Regional Weather Roundup
Issued by NWS

Home | Current Version | Previous Version | Graphics & Text | Print | Product List | Glossary On
Versions: 1 2 3 4 5 6 7 8 9 10 11 12 13 14 15 16 17 18 19 20 21 22 23 24 25 26 27 28 29 30 31 32 33 34 35 36 37 38 39 40 41 42 43 44 45 46 47 48 49 50
000
ASUS45 KBOI 241610
RWRID
WEATHER ROUNDUP FOR IDAHO
NATIONAL WEATHER SERVICE BOISE ID
900 AM MST SAT JAN 24 2015

NOTE: "FAIR" INDICATES FEW OR NO CLOUDS BELOW 12000 FEET
WITH NO SIGNIFICANT WEATHER AND/OR OBSTRUCTIONS TO VISIBILITY

IDZ012-014-241700-
SOUTHWEST IDAHO


CITY           SKY/WX    TMP DP  RH WIND       PRES   REMARKS
BOISE          CLOUDY    31  28  89 CALM      30.51R FOG
CALDWELL       CLOUDY    30  23  74 E6        30.54S WCI  24
MOUNTAIN HOME  DRIZZLE   30  27  86 E7        30.50S WCI  23
$$

IDZ016-017-241700-
SOUTHCENTRAL IDAHO


CITY           SKY/WX    TMP DP  RH WIND       PRES   REMARKS
BURLEY         CLOUDY    30  28  92 NE6       30.46R FOG     WCI  24
JEROME         CLOUDY    26  24  92 NE10      30.47S WCI  16
TWIN FALLS     FOG       31  28  89 N6        30.47R VSB<1/4 WCI  25
$$

IDZ019>023-241700-
SOUTHEAST IDAHO


CITY           SKY/WX    TMP DP  RH WIND       PRES   REMARKS
IDAHO FALLS    FOG       26  24  92 NW7       30.47R VSB 1   WCI  18
POCATELLO      CLOUDY    28  28 100 N5        30.47F WCI  23
REXBURG        CLOUDY    22  19  89 CALM      30.46R
$$

IDZ006-010-011-018-031-032-241700-
CENTRAL IDAHO MOUNTAINS


CITY           SKY/WX    TMP DP  RH WIND       PRES   REMARKS
MCCALL         CLOUDY    30  28  92 CALM      30.40F FOG
HAILEY         MOCLDY    16  16 100 CALM      30.46R
STANLEY          N/A     22  16  78 CALM      30.42S
SALMON         CLOUDY    21  19  93 CALM      30.40R
CHALLIS        CLOUDY    27  21  78 CALM      30.36S
$$

IDZ002-004-006-007-026-241700-
NORTHERN IDAHO


CITY           SKY/WX    TMP DP  RH WIND       PRES   REMARKS
LEWISTON       CLOUDY    48  39  71 CALM      30.30R
LOWELL           N/A     35  34  96 NW5       30.40S WCI  31
COEUR D`ALENE  CLOUDY    37  37 100 SW7       30.28S VSB 1/4 WCI  32
MULLAN PASS    RAIN      34  34 100 VRB5      30.24R VSB 1/2 WCI  30
$$


USA.gov is the U.S. government's official web portal to all federal, state and local government web resources and services.